NOAA 16 DEB, 41496

Orbit data source: Space-Track

NOAA 16 DEB, 41496 is space debris in SSO originally from a launch on Thu, 21 Sep 2000 UTC launched from the Air Force Western Test Range (AFWTR). Debris objects in space refer to the collection of defunct objects orbiting the Earth. Examples of debris include non-operational satellites, rocket bodies, and fragments generated from explosions, collisions, or faulty payload assembly.

Loading next visibility...
Identifier
41496, 2000-055LU
Orbit
SSO
Country
Flag of USUS
Related business
Manufacturer
Unknown
Mission
Spacecraft
Bus & Motor
Unknown
Mass
Unknown
Launch date (UTC)
2000-09-21 (26 years ago)
Launch vehicle
Unknown
Launch site
Air Force Western Test Range (AFWTR)
Object type
Payload
Rocket body
Debris
Shape & HBR
Unknown shape, 0.1 m
Radar Cross Section
Small (<0.1 m²)

Expand to show TLE details & history
Last TLE update: 1 day ago

TLE from 1 day ago
0 NOAA 16 DEB
1 41496U 00055LU  26126.25334846  .00004481  00000-0  14983-2 0  9990
2 41496  98.7267 231.1448 0012961 318.2377  41.7819 14.37869620527299
Epoch: 2026-05-06T06:04Z
TLE epoch observation values (Epoch: 2026-05-06T06:04:49.306Z)
Latitude
-0.00007°
Longitude
-84.17712°
Altitude
761.584 km
Speed
7.477 km/s
True Right ascension
15h 24m 34s
True Declination
0° 00' 00"
Sunlit
Object was in full shadow at epoch
Visualization orbit readout
Latitude
Unknown
Longitude
Unknown
Altitude
Unknown
Speed
Unknown
Apparent Right ascension
Unknown
Apparent Declination
Unknown
Sunlit
N/A
Visualization observer readout
Local Sidereal Time
15:44:08
Azimuth
Unknown
Elevation
Unknown
Doppler factor
Unknown
Orbital elements
Apogee altitude
771.937 km
Perigee altitude
753.426 km
Semi-major axis
7,140.818 km
Eccentricity
0.0013
Inclination
98.7267°
RAAN
231.1448°
Arg. of periapsis
318.2377°
True anomaly
41.88098°
Mean anomaly
41.7819°
Eccentric anomaly
41.83143°
Mean motion
3.59684 °/min
Orbital period
100.09 mins
BSTAR
0.0014983
Loading maneuver chart data...
Computing Atmospheric mass density...

Documentation

Showing up to 5 results
|